World > North America > United States > North Carolina

Bell Arthur, North Carolina Regional Weather

Lat: 35.58N, Lon: 77.4W
Wx Zone: NCZ044
Warning NWS WEATHER ALERT - (More Info. Click Here) Warning
Feedback

Bell Arthur, NC Regional Weather

Expires:201910211500;;051637
ASUS42 KMHX 211426
RWRMHX
WEATHER ROUNDUP FOR EASTERN NORTH CAROLINA
NATIONAL WEATHER SERVICE NEWPORT/MOREHEAD CITY NC
1000 AM EDT MON OCT 21 2019

NOTE: "FAIR" INDICATES FEW OR NO CLOUDS BELOW 12,000 FEET
WITH NO SIGNIFICANT WEATHER AND/OR OBSTRUCTIONS TO VISIBILITY


NCZ011>013-027>030-043-044-078>080-089-090>093-098-211500-
COASTAL PLAIN
  
CITY           SKY/WX    TMP DP  RH WIND       PRES   REMARKS
AHOSKIE        NOT AVBL                                               
CLINTON        CLOUDY    59  58  97 NE7       30.09S                  
ELIZABETHTOWN  CLOUDY    61  57  87 NE8       30.08S                  
GOLDSBORO      CLOUDY    61  57  86 N3        30.07R                  
GREENVILLE     CLOUDY    61  55  82 N5        30.09S                  
HAVELOCK       NOT AVBL                                               
KENANSVILLE    CLOUDY    61  57  88 N6        30.09S                  
KINSTON        CLOUDY    61  57  88 N5        30.09R                  
NEW BERN       CLOUDY    60  58  92 N8        30.08R                  
RICHLANDS      CLOUDY    61  57  87 N5        30.09R                  
ROCKY MOUNT    CLOUDY    59  57  93 N6        30.09R                  
WASHINGTON     CLOUDY    60  57  89 N3        30.08S                  
WHITEVILLE     FAIR      65  58  79 NE10      30.06S                  

$$


SKY/WX - Weather  TMP - Temperature  DP - Dew Point  RH - Relative Humidity
WIND - Wind Direction/Speed PRES - Barometric Pressure VSB - Visibility
WCI - Wind Chill Index E13G22 Wind - East Wind 13 mph/Gusts of 22 mph